Voltar ao catálogo

STARLINK-37673

AtivoComunicaçõesVLEO
NORAD 69370·PAYLOAD·🇺🇸 United States

Lançado Jun 4, 2026 de Cape Canaveral Space Force Station

Loading…

Próximas Passagens (próximas 24 horas)

TLE

AtualizadoSource: CelesTrak SupGP

Época: Sep 15, 2026, 03:11 UTC

1 69370C 26123T   26258.13312500  .00037337  00000+0  11035-2 0  2589
2 69370  53.1579 166.7807 0001433 104.2711   1.3918 15.34361441    14

Acompanhe STARLINK-37673 em tempo real com AllMySat

Download on the App Store